This demonstration page uses our WeatherBlox Daily Observations layout. Learn more.

Left ArrowRight Arrow

47.50024, -111.30081

Hourly Observations for March 23, 2015

Temp ( °F °C ) Dew Point ( °F °C ) Humidity (%) Winds ( mph kmh ) Pressure ( in mb ) Visibility ( mi km ) Precip ( " mm )
12:53 am 00:53 Mostly Cloudy 39 3.9 24 -4.4 55 55 E 7 11 29.95 1014 10 16 0.00 0.00
1:53 am 01:53 Mostly Cloudy 41 5 21 -6.1 45 45 E 9 15 29.91 1013 10 16 0.00 0.00
2:53 am 02:53 Clear 39 3.9 19 -7.2 45 45 E 9 15 29.88 1012 10 16 0.00 0.00
3:53 am 03:53 Clear 35 1.7 19 -7.2 52 52 E 3 6 29.86 1011 10 16 0.00 0.00
4:53 am 04:53 Clear 26 -3.3 21 -6.1 81 81 WNW 5 7 29.86 1011 10 16 0.00 0.00
5:53 am 05:53 Clear 28 -2.2 22 -5.6 78 78 SW 5 7 29.84 1011 10 16 0.00 0.00
6:53 am 06:53 Mostly Cloudy 30 -1.1 24 -4.4 79 79 W 6 9 29.84 1011 10 16 0.00 0.00
7:53 am 07:53 Cloudy 32 0 24 -4.4 73 73 Calm 29.83 1010 10 16 0.00 0.00
8:53 am 08:53 Cloudy 34 1.1 25 -3.9 70 70 WNW 6 9 29.80 1009 10 16 0.00 0.00
9:53 am 09:53 Cloudy 36 2.2 25 -3.9 64 64 WNW 7 11 29.80 1009 10 16 0.00 0.00
10:53 am 10:53 Mostly Cloudy 41 5 26 -3.3 55 55 Calm 29.78 1008 10 16 0.00 0.00
11:53 am 11:53 Cloudy 41 5 26 -3.3 55 55 WNW 5 7 29.79 1009 10 16 0.00 0.00
12:53 pm 12:53 Cloudy 45 7.2 26 -3.3 48 48 W 3 6 29.78 1008 10 16 0.00 0.00
1:53 pm 13:53 Mostly Cloudy 48 8.9 27 -2.8 44 44 VRB 5 7 29.74 1007 10 16 0.00 0.00
2:53 pm 14:53 Cloudy 48 8.9 28 -2.2 46 46 E 6 9 29.73 1007 10 16 0.00 0.00
3:53 pm 15:53 Mostly Cloudy 54 12.2 30 -1.1 40 40 S 8 13 29.72 1006 10 16 0.00 0.00
4:53 pm 16:53 Cloudy 54 12.2 27 -2.8 35 35 WSW 25 41 29.75 1008 10 16 0.00 0.00
5:53 pm 17:53 Cloudy 49 9.4 29 -1.7 46 46 NW 9 15 29.81 1010 10 16 0.00 0.00
6:53 pm 18:53 Cloudy 48 8.9 30 -1.1 50 50 W 7 11 29.82 1010 10 16 0.00 0.00
7:53 pm 19:53 Cloudy 46 7.8 29 -1.7 51 51 SSW 10 17 29.84 1011 10 16 0.00 0.00
8:22 pm 20:22 Cloudy 46 8 28 -2 50 50 NW 12 19 29.77 1008 10 16 0.00 0.00
8:53 pm 20:53 Mostly Cloudy 42 5.6 29 -1.7 60 60 W 12 19 29.86 1011 10 16 0.00 0.00
9:53 pm 21:53 Mostly Clear 36 2.2 24 -4.4 62 62 W 9 15 29.90 1013 10 16 0.00 0.00
10:53 pm 22:53 Clear 33 0.6 25 -3.9 72 72 WSW 9 15 29.90 1013 10 16 0.00 0.00
11:53 pm 23:53 Clear 32 0 24 -4.4 73 73 WSW 8 13 29.91 1013 10 16 0.00 0.00

Powered by AerisWeather